CW9968 Weather Reports


Display with metric or nautical units.
time (UTC)temp
F
wind
direction
speed
MPH
gust
MPH
rain 1hr
in
rain 24hr
in
rain mn
in
humidity
%
barometer
mb
20180122162348 51 176 6.0 23.0 0.00 0.01 0.00 90 1005.4
20180122161804 51 176 8.0 23.0 0.00 0.01 0.00 90 1005.4
20180122161305 51 167 8.0 24.0 0.00 0.01 0.00 91 1005.4
20180122160804 51 164 5.0 21.0 0.00 0.02 0.00 91 1005.5
20180122160304 51 188 6.0 20.0 0.00 0.02 0.00 91 1005.5
20180122155804 51 180 5.0 14.0 0.00 0.02 0.00 91 1005.4
20180122155304 51 177 7.0 16.0 0.00 0.02 0.00 91 1005.5
20180122154804 51 173 6.0 21.0 0.00 0.02 0.00 92 1005.5
20180122154304 51 180 5.0 15.0 0.00 0.02 0.00 92 1005.6
20180122153804 51 161 5.0 26.0 0.00 0.02 0.00 92 1005.6
20180122153304 51 168 4.0 18.0 0.00 0.02 0.00 93 1005.6
20180122152804 50 183 9.0 24.0 0.00 0.02 0.00 93 1005.6
20180122152304 50 176 6.0 18.0 0.00 0.02 0.00 93 1005.7
20180122151804 50 174 6.0 22.0 0.00 0.02 0.00 93 1005.8
20180122151304 50 180 6.0 20.0 0.00 0.02 0.00 93 1005.8
20180122150804 50 168 5.0 23.0 0.00 0.02 0.00 92 1005.7
20180122150304 50 168 6.0 17.0 0.00 0.02 0.00 92 1005.6
20180122145804 50 171 1.0 3.0 0.00 0.02 0.00 92 1005.8
20180122145304 47 0 0.0 0.0 0.00 0.02 0.00 95 1005.8
20180122144804 47 0 0.0 0.0 0.00 0.02 0.00 95 1005.8
20180122144305 47 0 0.0 0.0 0.00 0.02 0.00 95 1006.0
20180122143804 47 0 0.0 0.0 0.00 0.02 0.00 95 1005.9
20180122143304 47 0 0.0 0.0 0.00 0.02 0.00 95 1006.1
20180122142804 47 0 0.0 0.0 0.00 0.02 0.00 95 1006.3
20180122142304 47 0 0.0 0.0 0.00 0.02 0.00 95 1006.4
20180122141809 47 0 0.0 0.0 0.00 0.02 0.00 95 1006.6
20180122141304 47 0 0.0 0.0 0.00 0.02 0.00 95 1006.7
20180122140804 47 0 0.0 0.0 0.00 0.02 0.00 95 1006.6
20180122140304 47 0 0.0 0.0 0.00 0.02 0.00 95 1006.7
20180122135804 47 0 0.0 0.0 0.00 0.02 0.00 95 1006.7
20180122135305 47 0 0.0 0.0 0.00 0.02 0.00 95 1006.7
20180122134804 47 0 0.0 0.0 0.00 0.02 0.00 95 1006.8
20180122134305 47 0 0.0 0.0 0.00 0.02 0.00 95 1006.7
20180122133804 47 0 0.0 0.0 0.00 0.02 0.00 95 1005.8
20180122133304 47 0 0.0 0.0 0.00 0.02 0.00 95 1005.6
20180122132803 47 0 0.0 0.0 0.00 0.02 0.00 95 1005.6
20180122132304 47 0 0.0 0.0 0.00 0.02 0.00 95 1005.8
20180122131804 47 0 0.0 0.0 0.00 0.02 0.00 95 1005.8
20180122131305 47 0 0.0 0.0 0.00 0.02 0.00 95 1005.9
20180122130804 47 0 0.0 0.0 0.00 0.02 0.00 95 1005.8
20180122130304 47 0 0.0 0.0 0.00 0.02 0.00 95 1005.8
20180122125804 47 0 0.0 0.0 0.00 0.02 0.00 95 1005.7
20180122125304 47 0 0.0 0.0 0.00 0.02 0.00 95 1005.7
20180122124803 47 0 0.0 0.0 0.00 0.02 0.00 95 1005.8
20180122124304 47 0 0.0 0.0 0.00 0.02 0.00 95 1005.9
20180122123804 47 0 0.0 0.0 0.00 0.02 0.00 95 1005.9
20180122123304 47 0 0.0 0.0 0.00 0.02 0.00 95 1006.1
20180122122804 47 0 0.0 0.0 0.00 0.02 0.00 95 1006.0
20180122122304 47 0 0.0 0.0 0.00 0.02 0.00 95 1006.2
20180122121804 47 0 0.0 0.0 0.00 0.02 0.00 95 1006.4
20180122121304 47 0 0.0 0.0 0.00 0.02 0.00 95 1006.6
20180122120804 47 0 0.0 0.0 0.00 0.02 0.00 95 1006.6
20180122120304 47 0 0.0 0.0 0.00 0.02 0.00 95 1006.5
20180122115804 47 0 0.0 0.0 0.00 0.02 0.00 95 1006.6
20180122115304 47 0 0.0 0.0 0.00 0.02 0.00 95 1006.8
20180122114803 47 0 0.0 0.0 0.00 0.02 0.00 95 1006.9
20180122114304 47 0 0.0 0.0 0.00 0.02 0.00 95 1007.0
20180122113804 47 0 0.0 0.0 0.00 0.02 0.00 95 1006.9
20180122113304 47 0 0.0 0.0 0.00 0.02 0.00 95 1007.1
20180122112804 47 0 0.0 0.0 0.00 0.02 0.00 95 1007.1
20180122112305 47 0 0.0 0.0 0.00 0.02 0.00 95 1007.1
20180122111804 47 7 1.0 3.0 0.00 0.02 0.00 95 1007.2
20180122111304 47 148 3.0 3.0 0.00 0.02 0.00 95 1007.3
20180122110804 47 148 2.0 10.0 0.00 0.02 0.00 95 1007.2
20180122110304 48 149 2.0 12.0 0.00 0.02 0.00 95 1007.2
20180122105805 47 154 2.0 7.0 0.00 0.02 0.00 95 1007.3
20180122105306 48 159 3.0 7.0 0.00 0.02 0.00 95 1007.4
20180122104804 48 157 3.0 7.0 0.00 0.02 0.00 95 1007.6
20180122104304 48 155 2.0 7.0 0.00 0.02 0.00 95 1007.6
20180122103804 48 155 0.0 3.0 0.00 0.02 0.00 95 1007.7
20180122103304 48 155 1.0 5.0 0.00 0.02 0.00 95 1007.9
20180122102804 48 155 0.0 2.0 0.00 0.02 0.00 95 1007.9
20180122102305 48 155 1.0 6.0 0.00 0.02 0.00 95 1008.0
20180122101804 48 156 1.0 5.0 0.00 0.02 0.00 95 1008.1
20180122101304 48 156 0.0 2.0 0.00 0.02 0.00 95 1008.1
20180122100804 48 156 2.0 6.0 0.00 0.02 0.00 95 1008.3
20180122100304 48 155 1.0 5.0 0.00 0.02 0.00 95 1008.4
20180122095804 48 155 1.0 5.0 0.00 0.02 0.00 95 1008.5
20180122095305 48 155 2.0 6.0 0.00 0.02 0.00 95 1008.5
20180122094804 48 155 2.0 6.0 0.00 0.02 0.00 95 1008.6
20180122094305 48 157 2.0 6.0 0.00 0.02 0.00 95 1008.6
20180122093804 48 155 1.0 3.0 0.00 0.02 0.00 95 1008.7
20180122093304 48 155 0.0 3.0 0.00 0.02 0.00 95 1009.0
20180122092804 48 155 1.0 5.0 0.00 0.02 0.00 95 1009.1
20180122092306 48 156 2.0 7.0 0.00 0.02 0.00 95 1009.1
20180122091804 48 154 0.0 9.0 0.00 0.02 0.00 95 1009.2
20180122091304 48 154 0.0 3.0 0.00 0.02 0.00 95 1009.4
20180122090804 48 154 2.0 8.0 0.00 0.02 0.00 95 1009.4
20180122090303 48 155 3.0 7.0 0.00 0.02 0.00 95 1009.4
20180122085804 48 158 3.0 12.0 0.00 0.02 0.00 95 1009.5
20180122085305 48 161 3.0 9.0 0.00 0.02 0.00 95 1009.7
20180122084803 48 158 3.0 10.0 0.00 0.02 0.00 95 1009.7
20180122084304 48 158 3.0 12.0 0.00 0.02 0.00 95 1009.9
20180122083804 49 159 3.0 6.0 0.00 0.02 0.00 95 1010.0
20180122083304 49 165 2.0 7.0 0.00 0.02 0.00 95 1010.0
20180122082804 49 166 3.0 9.0 0.00 0.02 0.00 95 1010.1
20180122082305 49 169 3.0 9.0 0.00 0.02 0.00 95 1010.4
20180122081804 49 165 1.0 13.0 0.00 0.02 0.00 95 1010.3
20180122081304 49 159 3.0 15.0 0.00 0.02 0.00 95 1010.3
20180122080804 48 160 3.0 10.0 0.00 0.02 0.00 95 1010.4
20180122080303 48 155 2.0 5.0 0.00 0.02 0.00 95 1010.5
20180122075804 48 155 2.0 7.0 0.00 0.02 0.00 95 1010.5
20180122075305 48 157 3.0 7.0 0.00 0.02 0.00 95 1010.5
20180122074804 47 155 1.0 6.0 0.00 0.02 0.00 95 1010.5
20180122074304 48 155 0.0 5.0 0.00 0.02 0.00 95 1010.8
20180122073803 48 155 0.0 0.0 0.00 0.02 0.00 95 1010.8
20180122073304 48 155 0.0 3.0 0.00 0.02 0.00 95 1010.6
20180122072804 47 156 0.0 0.0 0.00 0.02 0.00 95 1010.6
20180122072306 47 156 0.0 0.0 0.00 0.03 0.00 95 1010.7
20180122071803 47 155 0.0 0.0 0.00 0.03 0.00 95 1010.8
20180122071304 47 156 0.0 0.0 0.00 0.03 0.00 95 1010.8
20180122070804 47 156 0.0 0.0 0.00 0.03 0.00 95 1011.0
20180122070304 47 156 0.0 0.0 0.00 0.03 0.00 95 1011.1
20180122065804 47 156 0.0 0.0 0.00 0.03 0.00 95 1011.2
20180122065303 47 156 0.0 0.0 0.00 0.03 0.00 95 1011.4
20180122064804 47 156 0.0 0.0 0.00 0.03 0.00 95 1011.4
20180122064304 47 156 0.0 0.0 0.00 0.03 0.00 95 1011.4
20180122063804 47 156 0.0 1.0 0.00 0.03 0.00 95 1011.5
20180122063303 47 156 0.0 2.0 0.00 0.03 0.00 95 1011.6
20180122062805 47 156 0.0 3.0 0.00 0.03 0.00 95 1011.6
20180122062303 47 156 0.0 3.0 0.00 0.03 0.00 95 1011.7
20180122061804 47 156 1.0 3.0 0.00 0.03 0.00 95 1011.8
20180122061304 47 157 1.0 3.0 0.00 0.03 0.00 95 1011.9
20180122060804 46 157 2.0 3.0 0.00 0.03 0.00 95 1011.9
20180122060304 46 156 2.0 3.0 0.00 0.03 0.00 95 1011.9
20180122055804 46 156 1.0 3.0 0.00 0.03 0.00 95 1012.2
20180122055303 46 157 2.0 3.0 0.00 0.03 0.00 95 1012.2
20180122054804 46 157 2.0 9.0 0.00 0.03 0.00 95 1012.3
20180122054304 44 166 1.0 3.0 0.00 0.03 0.00 95 1013.8
20180122053305 46 157 1.0 5.0 0.00 0.03 0.00 95 1012.6
20180122052804 46 157 3.0 7.0 0.00 0.03 0.00 95 1012.8
20180122052305 46 157 3.0 6.0 0.00 0.03 0.00 95 1012.7
20180122051805 46 157 2.0 6.0 0.00 0.03 0.00 95 1012.8
20180122051305 46 158 3.0 7.0 0.00 0.03 0.00 95 1012.8
20180122050806 46 161 3.0 7.0 0.00 0.03 0.00 95 1012.9
20180122050305 46 161 3.0 6.0 0.00 0.03 0.00 95 1013.0
20180122045805 46 161 3.0 5.0 0.00 0.03 0.03 95 1013.2
20180122045305 46 162 0.0 2.0 0.00 0.03 0.03 94 1013.2
20180122044805 46 162 0.0 0.0 0.00 0.03 0.03 95 1013.5
20180122044306 46 162 1.0 3.0 0.00 0.03 0.03 95 1013.6
20180122043805 46 162 1.0 3.0 0.00 0.03 0.03 95 1013.7
20180122043304 46 162 1.0 3.0 0.00 0.03 0.03 95 1013.7
20180122042805 46 162 1.0 5.0 0.00 0.03 0.03 95 1013.8
20180122042305 46 162 0.0 2.0 0.00 0.03 0.03 95 1013.8
20180122041805 46 162 0.0 0.0 0.00 0.03 0.03 95 1013.8
20180122041305 46 162 0.0 1.0 0.00 0.03 0.03 95 1014.0
20180122040805 46 162 0.0 2.0 0.00 0.03 0.03 95 1014.1
20180122040305 46 162 1.0 3.0 0.00 0.03 0.03 95 1014.1
20180122035805 46 162 1.0 3.0 0.00 0.03 0.03 94 1014.0
20180122035305 46 162 1.0 3.0 0.00 0.03 0.03 94 1014.1
20180122034805 46 162 2.0 6.0 0.00 0.03 0.03 94 1014.1
20180122034304 46 162 1.0 6.0 0.00 0.03 0.03 94 1014.2
20180122033805 46 162 0.0 3.0 0.00 0.03 0.03 94 1014.2
20180122033304 46 162 0.0 0.0 0.00 0.03 0.03 94 1014.2
20180122032804 46 162 1.0 3.0 0.00 0.03 0.03 94 1014.2
20180122032305 46 162 1.0 3.0 0.00 0.03 0.03 95 1014.1
20180122031805 46 162 0.0 5.0 0.00 0.03 0.03 95 1014.1
20180122031305 46 162 0.0 3.0 0.00 0.03 0.03 95 1014.0
20180122030806 46 162 1.0 3.0 0.00 0.03 0.03 95 1014.1
20180122030305 46 162 1.0 3.0 0.00 0.03 0.03 95 1014.1
20180122025805 46 162 0.0 3.0 0.00 0.03 0.03 95 1014.1
20180122025305 46 162 0.0 3.0 0.00 0.03 0.03 95 1014.1
20180122024804 46 162 1.0 3.0 0.00 0.03 0.03 95 1014.2
20180122024304 46 162 1.0 5.0 0.00 0.03 0.03 95 1014.3
20180122023805 46 162 1.0 3.0 0.00 0.03 0.03 95 1014.2
20180122023304 46 162 1.0 6.0 0.00 0.04 0.03 95 1014.3
20180122022804 46 161 2.0 5.0 0.00 0.04 0.03 95 1014.3
20180122022305 46 161 2.0 6.0 0.00 0.04 0.03 95 1014.2
20180122021805 46 161 2.0 6.0 0.00 0.04 0.03 95 1014.2
20180122021305 46 162 2.0 6.0 0.00 0.04 0.03 95 1014.3
20180122020805 46 161 2.0 3.0 0.00 0.04 0.03 95 1014.3
20180122020305 46 161 2.0 5.0 0.00 0.04 0.03 95 1014.4
20180122015805 46 161 1.0 3.0 0.00 0.04 0.03 95 1014.5
20180122015305 46 161 1.0 5.0 0.00 0.04 0.03 95 1014.5
20180122014805 46 162 2.0 6.0 0.00 0.04 0.03 95 1014.7
20180122014304 46 162 0.0 5.0 0.00 0.04 0.03 95 1014.6
20180122013805 45 162 1.0 5.0 0.00 0.04 0.03 94 1014.5
20180122013304 45 162 0.0 7.0 0.00 0.04 0.03 94 1014.5
20180122012804 45 164 0.0 3.0 0.00 0.04 0.03 94 1014.6
20180122012305 45 164 0.0 3.0 0.00 0.04 0.03 94 1014.6
20180122011805 45 164 0.0 3.0 0.00 0.04 0.03 94 1014.6
20180122011305 45 164 1.0 3.0 0.00 0.04 0.03 94 1014.6
20180122010804 45 164 0.0 1.0 0.00 0.04 0.03 94 1014.5
20180122010304 45 164 0.0 3.0 0.00 0.04 0.03 94 1014.8
20180122005805 46 164 0.0 3.0 0.00 0.04 0.03 94 1014.8
20180122005305 46 164 1.0 5.0 0.00 0.04 0.03 94 1014.9
20180122004805 46 164 1.0 3.0 0.00 0.04 0.03 94 1014.9
20180122004305 46 164 1.0 3.0 0.00 0.04 0.03 94 1014.9
20180122003805 46 164 3.0 6.0 0.00 0.04 0.03 94 1014.8
20180122003304 46 165 2.0 6.0 0.00 0.04 0.03 94 1014.9
20180122002805 46 165 1.0 3.0 0.00 0.04 0.03 94 1014.9
20180122002305 46 165 0.0 3.0 0.00 0.04 0.03 94 1014.9
20180122001804 46 165 2.0 3.0 0.01 0.04 0.03 94 1014.9
20180122001304 46 165 2.0 3.0 0.01 0.04 0.03 94 1014.9
20180122000805 46 165 1.0 3.0 0.01 0.04 0.03 94 1014.9
20180122000304 46 165 0.0 3.0 0.01 0.04 0.03 94 1014.9
20180121235804 45 165 2.0 3.0 0.01 0.04 0.03 94 1014.9
20180121235305 45 165 1.0 6.0 0.01 0.04 0.03 94 1015.0
20180121234805 45 165 0.0 5.0 0.01 0.04 0.03 94 1014.7
20180121234304 45 165 2.0 5.0 0.01 0.04 0.03 94 1014.8
20180121233805 45 165 1.0 6.0 0.01 0.04 0.03 94 1014.8
20180121233305 45 165 0.0 5.0 0.01 0.04 0.03 94 1014.9
20180121232805 45 165 0.0 5.0 0.01 0.04 0.03 94 1014.7
20180121232305 45 165 1.0 5.0 0.01 0.04 0.03 94 1014.6
20180121231805 45 167 2.0 7.0 0.00 0.03 0.02 94 1014.6
20180121231305 45 169 2.0 6.0 0.00 0.03 0.02 94 1014.4
20180121230806 46 169 2.0 5.0 0.00 0.03 0.02 94 1014.8
20180121230305 46 169 1.0 3.0 0.00 0.03 0.02 94 1014.9
20180121225805 45 169 0.0 5.0 0.00 0.04 0.02 94 1014.9
20180121225304 45 169 1.0 6.0 0.00 0.04 0.02 94 1014.8
20180121224805 46 170 2.0 7.0 0.00 0.04 0.02 94 1014.7
20180121224305 46 170 1.0 5.0 0.00 0.04 0.02 94 1014.8
20180121223804 45 171 1.0 5.0 0.00 0.04 0.02 94 1014.8
20180121223308 46 171 0.0 3.0 0.00 0.04 0.02 94 1014.7
20180121222804 46 171 2.0 6.0 0.00 0.04 0.02 94 1014.7
20180121222305 46 171 1.0 5.0 0.00 0.04 0.02 94 1014.8
20180121221804 46 171 1.0 7.0 0.00 0.04 0.02 94 1014.7
20180121221305 46 172 0.0 3.0 0.00 0.04 0.02 94 1014.7
20180121220805 46 172 0.0 3.0 0.00 0.04 0.02 94 1014.7
20180121220304 46 172 1.0 6.0 0.00 0.04 0.02 94 1014.6
20180121215804 46 173 0.0 2.0 0.00 0.04 0.02 94 1014.6
20180121215305 46 173 0.0 0.0 0.00 0.04 0.02 94 1014.6
20180121214804 46 173 0.0 5.0 0.00 0.04 0.02 94 1014.5
20180121214304 46 173 1.0 3.0 0.00 0.04 0.02 94 1014.5
20180121213804 46 173 1.0 5.0 0.00 0.04 0.02 94 1014.6
20180121213305 46 173 0.0 2.0 0.00 0.04 0.02 94 1014.5
20180121212805 45 173 1.0 3.0 0.00 0.04 0.02 94 1014.4
20180121212305 45 173 1.0 6.0 0.00 0.05 0.02 94 1014.3
20180121211805 45 173 0.0 2.0 0.00 0.05 0.02 94 1014.3
20180121211305 45 173 0.0 3.0 0.00 0.05 0.02 94 1014.4
20180121210804 45 173 1.0 3.0 0.00 0.05 0.02 94 1014.4
20180121210304 45 173 0.0 3.0 0.00 0.05 0.02 94 1014.4
20180121205804 45 173 0.0 3.0 0.00 0.05 0.02 94 1014.2
20180121205305 45 173 1.0 3.0 0.00 0.05 0.02 94 1014.1
20180121204804 45 173 0.0 3.0 0.00 0.05 0.02 94 1014.2
20180121204304 45 173 0.0 7.0 0.00 0.05 0.02 94 1014.1
20180121203804 45 175 0.0 6.0 0.00 0.05 0.02 94 1014.2
20180121203304 45 174 2.0 5.0 0.00 0.05 0.02 94 1014.1
20180121202805 45 174 1.0 3.0 0.00 0.05 0.02 94 1014.0
20180121202305 45 174 1.0 3.0 0.00 0.05 0.02 94 1014.0
20180121201805 45 174 0.0 3.0 0.00 0.05 0.02 94 1014.0
20180121201304 45 174 1.0 3.0 0.00 0.05 0.02 94 1014.1
20180121200804 44 175 0.0 2.0 0.00 0.05 0.02 94 1014.2
20180121200304 44 175 0.0 3.0 0.00 0.05 0.02 94 1014.1
20180121195805 44 175 0.0 0.0 0.00 0.05 0.02 94 1014.1
20180121195304 44 175 1.0 3.0 0.00 0.05 0.02 94 1014.1
20180121194804 44 175 0.0 0.0 0.00 0.05 0.02 94 1014.2
20180121194305 44 175 0.0 2.0 0.00 0.05 0.02 94 1014.3
20180121193804 44 175 0.0 0.0 0.00 0.05 0.02 94 1014.2
20180121193304 44 175 0.0 2.0 0.00 0.06 0.02 94 1014.2
20180121192805 44 174 1.0 3.0 0.00 0.06 0.02 94 1014.2
20180121192304 44 175 0.0 5.0 0.00 0.06 0.02 94 1014.3
20180121191804 44 175 0.0 0.0 0.00 0.06 0.02 94 1014.3
20180121191304 44 175 0.0 1.0 0.00 0.06 0.02 94 1014.4
20180121190804 44 175 0.0 3.0 0.00 0.06 0.02 94 1014.3
20180121190305 44 175 1.0 3.0 0.00 0.06 0.02 94 1014.4
20180121185805 44 175 1.0 5.0 0.00 0.06 0.02 94 1014.4
20180121185305 44 175 0.0 6.0 0.00 0.06 0.02 94 1014.4
20180121184805 44 178 0.0 3.0 0.00 0.06 0.02 94 1014.4
20180121184304 44 178 0.0 2.0 0.00 0.06 0.02 94 1014.7
20180121183804 43 178 0.0 2.0 0.00 0.06 0.02 94 1014.8
20180121183304 43 178 1.0 3.0 0.00 0.06 0.02 94 1015.0
20180121182804 43 178 0.0 3.0 0.00 0.06 0.02 94 1015.1
20180121182305 43 178 0.0 2.0 0.00 0.06 0.02 94 1015.1
20180121181804 43 178 0.0 0.0 0.00 0.06 0.02 94 1015.2
20180121181304 43 178 0.0 2.0 0.00 0.07 0.02 94 1015.2
20180121180804 43 178 0.0 1.0 0.00 0.07 0.02 94 1015.3
20180121180304 42 178 0.0 0.0 0.00 0.07 0.02 94 1015.4
20180121175804 42 178 0.0 0.0 0.00 0.07 0.02 94 1015.5
20180121175304 42 178 0.0 3.0 0.00 0.07 0.02 94 1015.5
20180121174804 42 178 1.0 3.0 0.00 0.07 0.02 94 1015.7
20180121174304 42 177 0.0 3.0 0.00 0.07 0.02 94 1015.9
20180121173804 42 177 2.0 5.0 0.00 0.07 0.02 94 1015.9
20180121173304 42 178 0.0 3.0 0.00 0.07 0.02 94 1016.1
20180121172804 42 178 0.0 0.0 0.00 0.07 0.02 94 1016.1
20180121172304 42 178 0.0 3.0 0.00 0.07 0.02 94 1016.2
20180121171804 42 178 0.0 0.0 0.00 0.07 0.02 94 1016.3
20180121171305 42 178 0.0 0.0 0.00 0.07 0.02 94 1016.4
20180121170804 42 178 0.0 0.0 0.00 0.08 0.02 94 1016.5
20180121170304 42 178 0.0 0.0 0.01 0.08 0.02 94 1016.6
20180121165805 42 178 0.0 0.0 0.01 0.08 0.02 94 1016.7
20180121165305 41 178 0.0 0.0 0.01 0.08 0.02 94 1017.0
20180121164804 41 178 0.0 0.0 0.01 0.08 0.02 94 1017.0
20180121164304 41 178 0.0 0.0 0.01 0.08 0.02 94 1017.0
20180121163804 41 178 0.0 0.0 0.01 0.08 0.02 94 1017.0
20180121163304 41 178 0.0 0.0 0.01 0.09 0.02 94 1017.0
20180121162804 41 178 0.0 0.0 0.01 0.09 0.02 94 1017.0